[[{"header":{"parameterUnit":"m.s-1","parameterCategory":1,"la1":30.2991,"la2":30.254,"lo1":-89.0895,"lo2":-89.0444,"dy":0.0017,"dx":0.0017,"nx":28,"ny":28,"refTime":"2025-07-18T03:00:00:Z","depth":0,"parameterNumber":2,"parameterNumberName":"U-component_of_WINDS"},"data":[0,0,0,0,0,0,0,0,0,0,0,0,0,0,0,0,0,0,0,0,0,0,0,0,0,0,0,0,0,0,0,0,0,0,0,0,0,0,0,0,0,0,0,0,0,0,0,0,0,0,0,0,0,0,0,0,0,0,0.2823,0.2824,0,0.2863,0.2863,0.2864,0.2876,0.2876,0.2876,0.2876,0.2919,0.2921,0.2922,0,0,0,0,0,0,0,0,0,0,0,0,0,0.276,0.2761,0.2823,0.2824,0.2824,0.2863,0.2863,0.2864,0.2876,0.2876,0.2876,0.2876,0.2919,0.292,0.2922,0,0,0,0,0,0,0,0,0,0,0,0,0,0.2792,0.2761,0.2823,0.2835,0.2837,0.2863,0.2863,0.2864,0.2876,0.2876,0.2876,0.2876,0.2918,0.292,0.2922,0.294,0,0,0.2928,0.2929,0,0,0,0,0,0,0,0,0.279,0.2795,0.2833,0.2834,0.2836,0.2864,0.2857,0.289,0.2877,0.2861,0.2876,0.2875,0.2901,0.2905,0.2913,0.2942,0.2944,0.2929,0.293,0.2931,0.2931,0,0,0,0,0,0,0,0.2788,0.2793,0.2839,0.2833,0.2835,0.2839,0.2843,0.2863,0.2883,0.2863,0.2864,0.2868,0.2902,0.2911,0.2914,0.2945,0.2928,0.293,0.2931,0.2932,0.2989,0.2989,0,0,0,0,0,0,0.2784,0.2791,0.2838,0.284,0.2812,0.284,0.2845,0.2856,0.2882,0.2886,0.2868,0.2868,0.2908,0.2912,0.2916,0.2937,0.2931,0.2932,0.2934,0.2988,0.2989,0.2989,0,0,0,0,0,0,0.2782,0.2788,0.2836,0.2816,0.2822,0.2842,0.2853,0.2857,0.2865,0.2887,0.289,0.2873,0.2908,0.2913,0.2933,0.2939,0.2933,0.2935,0.2988,0.2988,0.2989,0.2982,0,0,0,0,0,0,0.278,0.2787,0.2794,0.2816,0.2823,0.2853,0.2854,0.2857,0.2868,0.2869,0.2892,0.2896,0.2908,0.293,0.2935,0.2942,0.2937,0.2988,0.2988,0.2989,0.2982,0.2982,0.2982,0,0,0,0,0,0.2778,0.2792,0.2795,0.28,0.2832,0.2853,0.2858,0.287,0.2869,0.2876,0.2889,0.2895,0.2937,0.2932,0.2938,0.2945,0.2987,0.2988,0.2989,0.2981,0.2982,0.2982,0,0,0,0,0,0,0.2772,0.2795,0.2798,0.2819,0.2834,0.2855,0.2865,0.287,0.2887,0.2887,0.2902,0.2907,0.2926,0.2938,0.2932,0.2963,0.2963,0.2964,0.2955,0.2956,0.2956,0.2953,0.2938,0,0,0,0,0,0.2773,0.2787,0.2807,0.2823,0.283,0.2846,0.2856,0.2864,0.288,0.2887,0.2902,0.2918,0.2935,0.2946,0.2962,0.2983,0.2988,0.299,0.299,0.2991,0.2992,0.3002,0.3004,0.2991,0.2991,0.2991,0,0,0.2776,0.279,0.2798,0.2822,0.2835,0.285,0.2852,0.2868,0.2879,0.289,0.291,0.2921,0.294,0.296,0.2969,0.297,0.2996,0.2991,0.2991,0.2993,0.3003,0.3004,0.3005,0.2992,0.2992,0.2992,0,0,0.2788,0.28,0.2814,0.2826,0.2844,0.2854,0.2857,0.2877,0.2884,0.2904,0.2912,0.2925,0.2954,0.2966,0.2977,0.299,0.2996,0.2995,0.2997,0.3007,0.3008,0.3009,0.3013,0.3014,0.2996,0.2996,0.2996,0,0.2789,0.2811,0.2822,0.2836,0.2846,0.2854,0.2869,0.288,0.2903,0.291,0.2909,0.2944,0.2957,0.298,0.2982,0.2991,0.2995,0.2993,0.3006,0.3008,0.3009,0.3013,0.3014,0.2996,0.2996,0.2996,0.2996,0,0.2811,0.2826,0.2836,0.2856,0.2867,0.2881,0.2894,0.2904,0.2909,0.2919,0.2938,0.2954,0.2973,0.2979,0.2986,0.3002,0.3001,0.3003,0.3004,0.3009,0.3014,0.3015,0.2996,0.2996,0.2996,0.2996,0,0,0.2824,0.2846,0.285,0.2858,0.2877,0.2889,0.2903,0.292,0.2928,0.2943,0.2955,0.2977,0.2979,0.299,0.2998,0.3006,0.3015,0.3008,0.3008,0.3008,0.3032,0.3031,0.3032,0.3018,0.3018,0.3019,0.303,0,0.2838,0.2864,0.2872,0.2893,0.2906,0.2913,0.2925,0.2938,0.2946,0.2959,0.2969,0.2984,0.2985,0.2992,0.3,0.3012,0.302,0.3011,0.303,0.3031,0.3026,0.3035,0.3034,0.3044,0.3032,0.3032,0.3033,0,0.286,0.2872,0.2894,0.2909,0.2915,0.2926,0.2941,0.2953,0.2967,0.2973,0.2984,0.299,0.3005,0.3003,0.3023,0.3017,0.3025,0.3031,0.3032,0.3035,0.3033,0.3038,0.3048,0.305,0.3035,0.3035,0.3035,0,0.2866,0.2889,0.2904,0.2911,0.2929,0.2936,0.2944,0.2958,0.2967,0.298,0.2986,0.3001,0.3009,0.3021,0.3031,0.3028,0.305,0.3049,0.3055,0.3055,0.3061,0.3061,0.3072,0.3065,0.3065,0.3065,0.3065,0,0.2882,0.2895,0.2907,0.2917,0.2931,0.294,0.2954,0.2962,0.2974,0.2985,0.2991,0.3002,0.3014,0.3026,0.3034,0.3049,0.3053,0.3058,0.306,0.3058,0.3057,0.3064,0.3064,0.3065,0.3065,0.3065,0.3065,0,0.2893,0.2901,0.2918,0.2932,0.2936,0.2946,0.2959,0.2968,0.2975,0.299,0.2993,0.3006,0.302,0.303,0.305,0.3055,0.3071,0.3073,0.3066,0.3067,0.3072,0.3072,0.309,0.3092,0.3083,0.3083,0.3083,0,0.2903,0.2913,0.2927,0.2934,0.2941,0.2953,0.2962,0.297,0.2978,0.2993,0.3001,0.3015,0.3027,0.3049,0.306,0.3074,0.3077,0.3082,0.3079,0.3076,0.3077,0.3076,0.3077,0.3083,0.3083,0.3083,0.3083,0,0.292,0.2922,0.2934,0.2946,0.2955,0.2965,0.2976,0.2981,0.2991,0.3,0.3014,0.3023,0.304,0.3054,0.3069,0.3077,0.3082,0.3083,0.3085,0.3083,0.3079,0.3081,0.3067,0.3083,0.3083,0.3083,0.3083,0.3083,0.293,0.2939,0.2949,0.2961,0.2969,0.2978,0.2987,0.2994,0.3005,0.302,0.3024,0.3037,0.3049,0.3068,0.3077,0.3087,0.3088,0.3091,0.3092,0.3093,0.3092,0.3076,0.309,0.309,0.309,0.309,0.309,0,0.2948,0.2954,0.2964,0.2977,0.2986,0.2987,0.2998,0.3006,0.3017,0.3027,0.3038,0.3052,0.3065,0.3075,0.3088,0.3095,0.3097,0.3098,0.3098,0.31,0.3092,0.3088,0.3096,0.3096,0.3096,0.3096,0.3096,0.3096,0.2958,0.2971,0.2975,0.2992,0.2998,0.3011,0.3017,0.3024,0.3032,0.3048,0.3057,0.3063,0.3073,0.3086,0.3098,0.3101,0.3105,0.3106,0.3109,0.3101,0.3101,0.31,0.3097,0.3106,0.3107,0.3116,0.3116,0.3117]},{"header":{"parameterUnit":"m.s-1","parameterCategory":1,"la1":30.2991,"la2":30.254,"lo1":-89.0895,"lo2":-89.0444,"dy":0.0017,"dx":0.0017,"nx":28,"ny":28,"refTime":"2025-07-18T03:00:00:Z","depth":0,"parameterNumber":3,"parameterNumberName":"V-component_of_WINDS"},"data":[0,0,0,0,0,0,0,0,0,0,0,0,0,0,0,0,0,0,0,0,0,0,0,0,0,0,0,0,0,0,0,0,0,0,0,0,0,0,0,0,0,0,0,0,0,0,0,0,0,0,0,0,0,0,0,0,0,0,4.7372,4.7371,0,4.7311,4.731,4.7309,4.7281,4.7281,4.7281,4.7282,4.7215,4.7213,4.7212,0,0,0,0,0,0,0,0,0,0,0,0,0,4.746,4.7458,4.7372,4.7371,4.737,4.7311,4.731,4.7309,4.7281,4.7281,4.7281,4.7282,4.7216,4.7214,4.7211,0,0,0,0,0,0,0,0,0,0,0,0,0,4.7412,4.7458,4.7372,4.7349,4.7347,4.7311,4.731,4.7309,4.7281,4.7281,4.7282,4.7282,4.7217,4.7214,4.7211,4.7192,0,0,4.7203,4.7202,0,0,0,0,0,0,0,0,4.7415,4.7409,4.7353,4.7351,4.7348,4.7304,4.7317,4.727,4.7281,4.7306,4.7282,4.7282,4.7244,4.7239,4.7228,4.7189,4.7186,4.7203,4.7201,4.72,4.7199,0,0,0,0,0,0,0,4.7418,4.7412,4.7347,4.7352,4.7349,4.7341,4.7334,4.7308,4.7275,4.7304,4.7302,4.7295,4.7243,4.723,4.7226,4.7185,4.7203,4.72,4.7199,4.7197,4.7128,4.7128,0,0,0,0,0,0,4.7426,4.7414,4.7349,4.7346,4.7382,4.7339,4.7332,4.7318,4.7275,4.7269,4.7295,4.7294,4.7235,4.7229,4.7223,4.7198,4.72,4.7197,4.7196,4.7128,4.7128,4.7128,0,0,0,0,0,0,4.7428,4.742,4.7352,4.7379,4.737,4.7338,4.7322,4.7316,4.7304,4.7269,4.7263,4.7289,4.7235,4.7227,4.72,4.7196,4.7196,4.7193,4.7128,4.7128,4.7128,4.7148,0,0,0,0,0,0,4.7431,4.7421,4.7415,4.738,4.7369,4.7331,4.7322,4.7315,4.73,4.7298,4.7261,4.7255,4.7234,4.7205,4.7198,4.7192,4.7191,4.7129,4.7128,4.7128,4.7148,4.7149,4.715,0,0,0,0,0,4.7434,4.7422,4.7415,4.7407,4.736,4.7331,4.7325,4.7302,4.73,4.7292,4.7269,4.7256,4.7197,4.7202,4.7194,4.7187,4.7129,4.7128,4.7128,4.7148,4.7149,4.7149,0,0,0,0,0,0,4.7456,4.7417,4.7408,4.7385,4.7362,4.7326,4.7316,4.7304,4.728,4.7279,4.7251,4.7243,4.7218,4.72,4.7206,4.7167,4.7162,4.716,4.718,4.718,4.7181,4.7186,4.7189,0,0,0,0,0,4.7459,4.744,4.7406,4.7389,4.7377,4.7349,4.7335,4.732,4.7294,4.7284,4.7259,4.7234,4.7209,4.7194,4.7169,4.7145,4.7136,4.7137,4.7137,4.7138,4.7136,4.7122,4.7121,4.7126,4.7126,4.7126,0,0,4.7463,4.7439,4.7429,4.7392,4.7373,4.7352,4.7341,4.732,4.7304,4.728,4.7254,4.7235,4.7204,4.7179,4.7166,4.7163,4.7133,4.7138,4.7139,4.7136,4.7121,4.7121,4.7121,4.7126,4.7126,4.7126,0,0,4.7461,4.7441,4.7425,4.7405,4.7376,4.7357,4.7353,4.7319,4.7306,4.728,4.7262,4.7242,4.7201,4.7179,4.7163,4.7153,4.714,4.7146,4.715,4.7136,4.7136,4.7135,4.7131,4.713,4.7144,4.7144,4.7145,0,4.7469,4.7439,4.7417,4.7397,4.7382,4.7361,4.7343,4.7325,4.7288,4.7277,4.7274,4.7222,4.72,4.7169,4.7167,4.7155,4.7149,4.715,4.7138,4.7137,4.7136,4.7132,4.713,4.7145,4.7145,4.7145,4.7145,0,4.7451,4.7431,4.7421,4.7388,4.7371,4.7352,4.7326,4.7311,4.7297,4.7279,4.7251,4.7224,4.7194,4.7185,4.7171,4.7152,4.7151,4.7143,4.7138,4.7137,4.7132,4.7131,4.7147,4.7146,4.7146,4.7146,0,0,4.7461,4.7417,4.7413,4.7398,4.7364,4.7347,4.7327,4.7298,4.7286,4.7261,4.7243,4.7209,4.7202,4.7184,4.7167,4.7155,4.7148,4.7148,4.7147,4.7149,4.7125,4.7131,4.7129,4.7139,4.7139,4.7139,4.7127,0,4.7454,4.7419,4.7398,4.7371,4.7351,4.7331,4.7313,4.7289,4.7271,4.7251,4.723,4.7206,4.7199,4.7187,4.7175,4.7152,4.7143,4.7152,4.7121,4.712,4.7129,4.7127,4.7133,4.7124,4.7125,4.7125,4.7125,0,4.7441,4.7418,4.7389,4.7357,4.7348,4.7333,4.7305,4.7286,4.7259,4.7246,4.7227,4.721,4.7187,4.7184,4.7151,4.7158,4.7143,4.713,4.7129,4.7125,4.7122,4.7122,4.7121,4.7119,4.7122,4.7122,4.7122,0,4.7451,4.7413,4.739,4.7378,4.734,4.733,4.7313,4.7286,4.7271,4.7246,4.7235,4.7208,4.7193,4.7171,4.7147,4.7147,4.7117,4.7112,4.7105,4.7105,4.7099,4.7099,4.7094,4.7091,4.7091,4.7091,4.7091,0,4.7444,4.7427,4.7394,4.738,4.736,4.7336,4.7317,4.7298,4.7275,4.7256,4.7236,4.7219,4.7189,4.7167,4.7148,4.7124,4.7117,4.7105,4.71,4.7107,4.7108,4.7097,4.7097,4.709,4.709,4.709,4.709,0,4.7452,4.7429,4.7403,4.737,4.7361,4.7348,4.7319,4.7304,4.7285,4.7262,4.7255,4.7225,4.7198,4.7173,4.7137,4.7124,4.71,4.7093,4.711,4.7107,4.7101,4.7102,4.7088,4.7085,4.7084,4.7084,4.7084,0,4.7449,4.7436,4.7402,4.7388,4.7373,4.7352,4.7336,4.7311,4.7296,4.7263,4.7252,4.7225,4.7202,4.7161,4.7135,4.7107,4.71,4.7097,4.7095,4.7102,4.7099,4.71,4.7098,4.7097,4.7098,4.7098,4.7098,0,4.7447,4.7437,4.7415,4.739,4.7372,4.7351,4.7328,4.7318,4.7289,4.7272,4.7246,4.7228,4.7192,4.7165,4.7135,4.7116,4.7102,4.7099,4.7096,4.7102,4.7112,4.7106,4.7111,4.7099,4.7099,4.7099,4.7099,4.7099,4.7449,4.7436,4.741,4.7387,4.7368,4.7347,4.7332,4.7312,4.729,4.726,4.7246,4.7219,4.7192,4.715,4.7132,4.711,4.7106,4.7102,4.71,4.7099,4.7101,4.7116,4.7104,4.7104,4.7104,4.7104,4.7104,0,4.7445,4.7428,4.7407,4.7377,4.7358,4.7348,4.7323,4.7307,4.7285,4.7261,4.7239,4.7208,4.7182,4.7154,4.7126,4.7113,4.7106,4.7107,4.7107,4.7103,4.7106,4.7111,4.7113,4.7113,4.7113,4.7113,4.7113,4.7113,4.7441,4.7419,4.7405,4.7373,4.7355,4.733,4.7316,4.7297,4.7278,4.7245,4.7223,4.7206,4.718,4.715,4.7125,4.7117,4.7107,4.711,4.71,4.7103,4.7103,4.7102,4.7107,4.7108,4.7108,4.7099,4.7099,4.7099]}]]